Track STARLINK-3576 now! 10-day predictions STARLINK-3576 is classified as:
1 51883U 22022AH 22187.66667824 .00046480 00000-0 29223-2 0 9990 2 51883 53.2161 263.7016 0001921 49.0826 254.5766 15.08802759 20644